{"data":{"norad_id":60516,"epoch":"2026-05-24T18:43:45.161184Z","epoch_age_seconds":94186,"freshness":"FRESH","line1":"1 60516U 24149BA  26144.78038381  .00012618  00000+0  33033-3 0  9995","line2":"2 60516  97.3784 228.2400 0003830  46.6204 313.5360 15.38848754 98676","mean_motion":15.38848754,"eccentricity":0.000383,"inclination_deg":97.3784,"raan_deg":228.24,"arg_perigee_deg":46.6204,"mean_anomaly_deg":313.536,"bstar":0.00033033,"rev_number":9867,"period_min":93.576447734512,"perigee_km":446.89748139816,"apogee_km":452.12746089306,"semimajor_km":6827.6494711456,"source":"CELESTRAK","updated_at":"2026-05-25T13:38:13.333916Z"}}